Upstream stations:
Downstream station:
SHEF ID: CASK1 NF NINNESCAH R AB CHENEY RE, KS
STATION TYPE:
PRECIP STAGE RIV-FLOW BAT-LOAD
in ft cfs volt
Ccp-Rev Ccp-Rev Ccp-Rev Ccp-Rev
(US/Central)
09/14 00:00 0.00 5.68 13 12.57
09/14 01:00 0.00 5.68 13 12.49
09/14 02:00 0.00 5.69 14 12.49
09/14 03:00 0.00 5.68 13 12.49
09/14 04:00 0.00 5.70 14 12.49
09/14 05:00 0.00 5.70 14 12.41
09/14 06:00 0.00 5.71 15 12.41
09/14 07:00 0.00 5.71 15 12.41
09/14 08:00 0.00 5.71 15 12.41
09/14 09:00 0.00 5.71 15 12.89
09/14 10:00 0.00 5.72 16 13.44
09/14 11:00 0.00 5.71 15 13.60
09/14 12:00 0.00 5.70 14 13.60
09/14 13:00 0.00 5.70 14 13.60
09/14 14:00 0.00 5.69 14 13.53
09/14 15:00 0.00 5.69 14 13.37
09/14 16:00 0.00 5.68 13 13.44
09/14 17:00 0.00 5.68 13 13.29
09/14 18:00 0.00 5.67 13 13.21
09/14 19:00 0.00 5.67 13 12.97
09/14 20:00 0.00 5.67 13 12.65
09/14 21:00 0.00 5.66 12 12.57
09/14 22:00 0.00 5.66 12 12.57
09/14 23:00 0.00 5.66 12 12.57